{"data":{"norad_id":65911,"epoch":"2026-05-25T04:00:03.998880Z","epoch_age_seconds":60802,"freshness":"FRESH","line1":"1 65911U 25225B   26145.16671295 -.00009502  00000+0 -27791-3 0  9999","line2":"2 65911  53.1590 170.7003 0001472 104.2449 255.6405 15.33552706  5855","mean_motion":15.33552706,"eccentricity":0.0001472,"inclination_deg":53.159,"raan_deg":170.7003,"arg_perigee_deg":104.2449,"mean_anomaly_deg":255.6405,"bstar":-0.00027791,"rev_number":585,"period_min":93.899609342804,"perigee_km":464.21539340233,"apogee_km":466.23007850859,"semimajor_km":6843.3597359555,"source":"CELESTRAK","updated_at":"2026-05-25T13:38:20.985798Z"}}